Regional Weather Roundup
Issued by NWS

Home | Current Version | Previous Version | Text Only | Print | Product List | Glossary Off
Versions: 1 2 3 4 5 6 7 8 9 10 11 12 13 14 15 16 17 18 19 20 21 22 23 24 25 26 27 28 29 30 31 32 33 34 35 36 37 38 39 40 41 42 43 44 45 46 47 48 49 50

000
ASUS43 KFSD 010210
RWRSD

WEATHER ROUNDUP FOR SOUTH DAKOTA
NATIONAL WEATHER SERVICE SIOUX FALLS SD
900 PM CDT TUE JUN 30 2015

NOTE: "FAIR" INDICATES FEW OR NO CLOUDS BELOW 12,000 FEET WITH NO
SIGNIFICANT WEATHER AND/OR OBSTRUCTIONS TO VISIBILITY.


SDZ001>005-009-010-012>017-010300-
NORTHWEST AND NORTH CENTRAL SOUTH DAKOTA

CITY           SKY/WX    TMP DP  RH WIND       PRES   REMARKS
BUFFALO          N/A     79  68  69 S10       29.79R
FAITH            N/A     73  63  70 SE8       29.88R
MOBRIDGE       PTCLDY    70  68  93 E8        29.85S FOG
$$

SDZ012>016-024>037-041>051-057-063-072>074-010300-
SOUTHWEST AND SOUTH CENTRAL SOUTH DAKOTA

CITY           SKY/WX    TMP DP  RH WIND       PRES   REMARKS
RAPID CTY ARPT CLEAR     77  69  76 E6        29.89S
PIERRE         CLOUDY    72  65  78 SE9       29.83R
CUSTER         CLEAR     78  52  40 CALM      30.06F
ELLSWORTH AFB  CLEAR     78  71  77 SE7       29.89S
PHILIP         PTCLDY    75  66  73 SE7       29.85R
PINE RIDGE     CLEAR     78  65  63 E6        29.90R
SPEARFISH      FAIR      79  64  61 SW3       29.94S
WINNER         FAIR      74  61  63 E16       29.86S
$$

SDZ004>011-016>023-039-040-010300-
NORTHEAST SOUTH DAKOTA

CITY           SKY/WX    TMP DP  RH WIND       PRES   REMARKS
ABERDEEN       MOCLDY    71  64  78 W3        29.88R
WATERTOWN      PTCLDY    69  62  78 E5        29.90F
BROOKINGS      CLOUDY    70  61  73 E9        29.93S
SISSETON         N/A     70  59  68 SE6       29.88F
$$

SDZ017-020-022-023-036>040-048>070-010300-
SOUTHEAST SOUTH DAKOTA

CITY           SKY/WX    TMP DP  RH WIND       PRES   REMARKS
SIOUX FALLS    CLOUDY    70  67  90 CALM      29.89F
HURON          CLOUDY    71  69  93 SE3       29.86S FOG
MITCHELL       LGT RAIN  70  68  93 SE3       29.88S
YANKTON        CLOUDY    70  66  88 E3        29.88F
$$

ABBREVIATIONS USED IN REMARKS
   TC - TEMPERATURE IN CELSIUS
  WCI - WIND CHILL INDEX
   HX - HEAT INDEX
  VSB - VISIBILITY



USA.gov is the U.S. government's official web portal to all federal, state and local government web resources and services.